Ana Sayfa
METAR-TAF:

METAR-TAF

Havaalanları :

Gaithersburg, Maryland, Amerika Birleşik Devletleri

Enlem: 39-10-06N, Boylam: 077-09-58W, yükseklik: 164 m

Güncel hava durumu gözlemi

Rapor saat 06:56 UTC de 46 dakika önce yapıldı.
Rüzgar batı/kuzeybatıdan 9 kt
Sıcaklık -1°C
Nem 54%
Basınç 1013 hPa
Görüş mesafesi: 16.1 km
Açık gökyüzü

METAR: KGAI 290656Z AUTO 29009KT 10SM CLR M01/M09 A2991 RMK AO2 SLP146 T10111094 FZRANO

Saat: 02:42 (07:42 UTC)


TAF: eksik

4.000'den fazla havaalanı için hava durumu gözlemleri ve tahminleri (METAR ve TAF raporları).

Kullanılabilir istasyonlar harita üzerinde sarı ve kırmızı noktalarla gösterilir.

İstasyonun adını görmek için fareyi noktanın üzerinde gezdirin.

Sonrasında hava gözlem ve tahminlerini görmek için tıklayın.

Haritayı değiştirmek için: yaklaştırmak için siyah artı işaretli yeşil düğmeye ve uzaklaştırmak için de eksi işaretli düğmeye hızla tıklayın; bitişik haritalar için yeşil okları kullanın.


METAR-TAF: